sat.trackr.live / text

‹ back to catalog

STARLINK-30797

NORAD 58154 · 2023-166E

PAYLOAD ACTIVE UNKNOWN

§ Identity

Operator
Country
US
Launch date
2023-10-29
Launch site
AFWTR
Launch vehicle
Mass (kg)
RCS (m²)

Purposes: comms

External: N2YO · Heavens-Above · Gunter

§ Orbital elements

Epoch: 2026-09-20T14:22:18.403104Z

Period
93.85 min
Inclination
53.1605°
Eccentricity
0.0001199
Mean motion
15.34391635 rev/d
Perigee alt
461.9 km
Apogee alt
463.5 km
Semi-major
6,840.9 km
B*
-1.1260e-5
RAAN
33.1457°
Arg perigee
89.6343°
Mean anomaly
270.4797°
Rev number
16,288

§ Raw data

STARLINK-307971 58154U 23166E   26263.59882411 -.00000756  00000+0 -11260-4 0  99912 58154  53.1605  33.1457 0001199  89.6343 270.4797 15.34391635162882

JSON: /api/v1/satellites/58154 · /tle

For live sub-satellite position, see the globe view (requires WebGL).

§ Visibility from observer

Set your observer location to see the next 7 days of passes ≥ 10°. The values pass through the URL so the page stays shareable.

No JS? Fill the form by hand. The geolocation button needs JavaScript.